Weather History for Presque Isle, ME

Change the Weather History Date:

Thursday, January 24, 2013

  Actual Average Record
Temperature  
Mean Temperature -4 °F -  
Max Temperature 0 °F 25 °F 51 °F (1999)
Min Temperature -9 °F 6 °F -24 °F (1961)
Degree Days  
Heating Degree Days 70    
Moisture  
Dew Point -21 °F    
Average Humidity 45    
Maximum Humidity 71    
Minimum Humidity 32    
Precipitation  
Precipitation 0.00 in - - ()
Sea Level Pressure  
Sea Level Pressure 29.70 in    
Wind  
Wind Speed 12 mph (West)    
Max Wind Speed 21 mph    
Max Gust Speed 30 mph    
Visibility 10 miles    
Events      
Averages and records for this station are not official NWS values.
T = Trace of Precipitation, MM = Missing Value Source: NWS Daily Summary

Daily Weather History Graph

Daily Weather History Graph

Search for Another Location

Airport:

Trip Planner

Search our weather history database for the weather conditions in past years. The results will help you decide how hot, cold, wet, or windy it might be!

Date:

Astronomy

Jan. 24, 2013 Rise Set
Actual Time 7:04 AM EST 4:24 PM EST
Civil Twilight 6:31 AM EST 4:57 PM EST
Nautical Twilight 5:55 AM EST 5:34 PM EST
Astronomical Twilight 5:19 AM EST 6:10 PM EST
Moon 2:21 PM EST (1/24) 5:02 AM EST (1/24)
Length of Visible Light 10h 25m
Length of Day
9h 19m
Waxing Gibbous, 94% of the Moon is Illuminated
Jan 24
Waxing Gibbous
Jan 26
Full
Feb 3
Last Quarter
Feb 10
New
Feb 17
First Quarter

Hourly Weather History & Observations

Time (EST) Temp. Windchill Dew Point Humidity Pressure Visibility Wind Dir Wind Speed Gust Speed Precip Events Conditions
12:15 AM -9.4 °F -27.9 °F -25.6 °F 45% 29.68 in 10.0 mi WSW 10.4 mph - N/A   Scattered Clouds
12:35 AM -9.4 °F -28.9 °F -25.6 °F 45% 29.67 in 10.0 mi WSW 11.5 mph 20.7 mph N/A   Partly Cloudy
12:55 AM -9.4 °F -28.9 °F -25.6 °F 45% 29.67 in 10.0 mi WSW 11.5 mph 21.9 mph N/A   Clear
1:15 AM -9.4 °F -28.9 °F -25.6 °F 45% 29.67 in 10.0 mi WSW 11.5 mph 24.2 mph N/A   Clear
1:35 AM -9.4 °F -29.8 °F -25.6 °F 45% 29.67 in 10.0 mi West 12.7 mph 18.4 mph N/A   Clear
1:55 AM -9.4 °F -27.9 °F -25.6 °F 45% 29.67 in 10.0 mi WSW 10.4 mph 17.3 mph N/A   Clear
2:15 AM -9.4 °F -28.9 °F -25.6 °F 45% 29.67 in 10.0 mi WSW 11.5 mph 16.1 mph N/A   Clear
2:35 AM -9.4 °F -29.8 °F -25.6 °F 45% 29.67 in 10.0 mi West 12.7 mph 19.6 mph N/A   Clear
2:55 AM -9.4 °F -32.1 °F -23.8 °F 49% 29.66 in 10.0 mi WSW 16.1 mph - N/A   Clear
3:15 AM -7.6 °F -26.6 °F -23.8 °F 45% 29.66 in 10.0 mi WSW 11.5 mph - N/A   Clear
3:35 AM -7.6 °F -26.6 °F -23.8 °F 45% 29.66 in 10.0 mi West 11.5 mph - N/A   Clear
3:55 AM -7.6 °F -26.6 °F -23.8 °F 45% 29.66 in 10.0 mi WSW 11.5 mph - N/A   Clear
4:15 AM -7.6 °F -24.6 °F -23.8 °F 45% 29.66 in 10.0 mi West 9.2 mph - N/A   Clear
4:35 AM -7.6 °F -24.6 °F -23.8 °F 45% 29.66 in 10.0 mi West 9.2 mph - N/A   Clear
4:55 AM -7.6 °F -25.7 °F -23.8 °F 45% 29.66 in 10.0 mi West 10.4 mph - N/A   Clear
5:35 AM -7.6 °F -24.6 °F -23.8 °F 45% 29.66 in 10.0 mi West 9.2 mph - N/A   Clear
5:55 AM -7.6 °F -25.7 °F -23.8 °F 45% 29.66 in 10.0 mi West 10.4 mph - N/A   Clear
6:15 AM -7.6 °F -25.7 °F -23.8 °F 45% 29.67 in 10.0 mi WSW 10.4 mph 18.4 mph N/A   Clear
6:35 AM -7.6 °F -22.1 °F -23.8 °F 45% 29.67 in 10.0 mi West 6.9 mph - N/A   Clear
6:55 AM -7.6 °F -20.6 °F -23.8 °F 45% 29.67 in 10.0 mi WSW 5.8 mph 16.1 mph N/A   Clear
7:15 AM -5.8 °F -23.4 °F -23.8 °F 42% 29.67 in 10.0 mi West 10.4 mph - N/A   Clear
7:35 AM -5.8 °F -22.4 °F -23.8 °F 42% 29.67 in 10.0 mi West 9.2 mph 16.1 mph N/A   Clear
7:55 AM -5.8 °F -25.2 °F -23.8 °F 42% 29.67 in 10.0 mi West 12.7 mph 18.4 mph N/A   Clear
8:15 AM -5.8 °F -28.2 °F -22.0 °F 46% 29.67 in 10.0 mi West 17.3 mph 21.9 mph N/A   Clear
8:35 AM -5.8 °F -29.4 °F -23.8 °F 42% 29.67 in 10.0 mi West 19.6 mph 28.8 mph N/A   Clear
8:55 AM -4.0 °F -26.4 °F -22.0 °F 42% 29.67 in 9.0 mi West 18.4 mph 26.5 mph N/A   Clear
9:15 AM -4.0 °F -25.8 °F -22.0 °F 42% 29.68 in 10.0 mi West 17.3 mph 24.2 mph N/A   Clear
9:35 AM -4.0 °F -25.2 °F -20.2 °F 46% 29.68 in 10.0 mi West 16.1 mph 25.3 mph N/A   Clear
9:55 AM -2.2 °F -22.9 °F -20.2 °F 42% 29.68 in 10.0 mi West 16.1 mph 23.0 mph N/A   Clear
10:15 AM -2.2 °F -22.2 °F -20.2 °F 42% 29.68 in 10.0 mi West 15.0 mph 21.9 mph N/A   Clear
10:35 AM -2.2 °F -22.2 °F -22.0 °F 39% 29.68 in 10.0 mi West 15.0 mph 26.5 mph N/A   Clear
10:55 AM -2.2 °F -23.5 °F -20.2 °F 42% 29.68 in 10.0 mi West 17.3 mph 23.0 mph N/A   Clear
11:15 AM -2.2 °F -23.5 °F -20.2 °F 42% 29.67 in 10.0 mi West 17.3 mph 21.9 mph N/A   Clear
11:35 AM -2.2 °F -23.5 °F -20.2 °F 42% 29.67 in 10.0 mi West 17.3 mph 26.5 mph N/A   Mostly Cloudy
11:55 AM -0.4 °F -19.2 °F -20.2 °F 39% 29.66 in 10.0 mi West 13.8 mph 25.3 mph N/A   Mostly Cloudy
12:15 PM -0.4 °F -22.3 °F -20.2 °F 39% 29.66 in 10.0 mi West 19.6 mph 27.6 mph N/A   Mostly Cloudy
12:35 PM -0.4 °F -22.8 °F -20.2 °F 39% 29.65 in 10.0 mi West 20.7 mph 26.5 mph N/A   Scattered Clouds
12:55 PM -0.4 °F -21.2 °F -20.2 °F 39% 29.66 in 10.0 mi West 17.3 mph 27.6 mph N/A   Scattered Clouds
1:15 PM -0.4 °F -19.2 °F -22.0 °F 36% 29.66 in 10.0 mi WNW 13.8 mph 26.5 mph N/A   Scattered Clouds
1:35 PM -0.4 °F -21.2 °F -20.2 °F 39% 29.67 in 10.0 mi West 17.3 mph 27.6 mph N/A   Mostly Cloudy
1:55 PM -0.4 °F -21.7 °F -18.4 °F 43% 29.68 in 10.0 mi WNW 18.4 mph 25.3 mph N/A   Mostly Cloudy
2:15 PM -0.4 °F -21.2 °F -23.8 °F 32% 29.68 in 10.0 mi WNW 17.3 mph 29.9 mph N/A   Mostly Cloudy
2:35 PM -0.4 °F -19.9 °F -20.2 °F 39% 29.69 in 10.0 mi West 15.0 mph 23.0 mph N/A   Overcast
2:55 PM -0.4 °F -19.9 °F -22.0 °F 36% 29.69 in 10.0 mi West 15.0 mph 25.3 mph N/A   Overcast
3:15 PM -0.4 °F -17.6 °F -18.4 °F 43% 29.69 in 10.0 mi WNW 11.5 mph 20.7 mph N/A   Overcast
3:35 PM -0.4 °F -20.5 °F -18.4 °F 43% 29.70 in 10.0 mi WNW 16.1 mph 20.7 mph N/A   Overcast
3:55 PM -0.4 °F -16.7 °F -18.4 °F 43% 29.70 in 10.0 mi NW 10.4 mph 19.6 mph N/A   Overcast
4:15 PM -2.2 °F -18.0 °F -18.4 °F 46% 29.70 in 10.0 mi WNW 9.2 mph - N/A   Scattered Clouds
4:35 PM -2.2 °F -16.8 °F -16.6 °F 50% 29.71 in 10.0 mi WNW 8.1 mph - N/A   Scattered Clouds
4:55 PM -2.2 °F -22.2 °F -20.2 °F 42% 29.71 in 10.0 mi WNW 15.0 mph 21.9 mph N/A   Scattered Clouds
5:15 PM -2.2 °F -19.9 °F -20.2 °F 42% 29.72 in 10.0 mi WNW 11.5 mph 18.4 mph N/A   Clear
5:35 PM -2.2 °F -18.9 °F -18.4 °F 46% 29.73 in 10.0 mi West 10.4 mph - N/A   Clear
5:55 PM -2.2 °F -15.6 °F -18.4 °F 46% 29.73 in 10.0 mi WNW 6.9 mph - N/A   Clear
6:15 PM -2.2 °F -16.8 °F -18.4 °F 46% 29.74 in 10.0 mi West 8.1 mph - N/A   Clear
6:35 PM -2.2 °F -19.9 °F -18.4 °F 46% 29.74 in 10.0 mi West 11.5 mph 17.3 mph N/A   Clear
6:55 PM -2.2 °F -18.0 °F -18.4 °F 46% 29.76 in 10.0 mi WNW 9.2 mph 16.1 mph N/A   Clear
7:15 PM -2.2 °F -16.8 °F -18.4 °F 46% 29.76 in 10.0 mi West 8.1 mph 19.6 mph N/A   Clear
7:35 PM -2.2 °F -19.9 °F -18.4 °F 46% 29.77 in 10.0 mi West 11.5 mph 18.4 mph N/A   Clear
7:55 PM -4.0 °F -22.1 °F -16.6 °F 55% 29.77 in 10.0 mi WNW 11.5 mph 16.1 mph N/A   Clear
8:15 PM -4.0 °F -23.0 °F -14.8 °F 60% 29.78 in 10.0 mi West 12.7 mph 17.3 mph N/A   Mostly Cloudy
8:35 PM -4.0 °F -20.2 °F -16.6 °F 55% 29.79 in 7.0 mi West 9.2 mph - N/A   Overcast
8:55 PM -4.0 °F -21.2 °F -18.4 °F 50% 29.80 in 10.0 mi West 10.4 mph - N/A   Overcast
9:35 PM -4.0 °F -19.0 °F -11.2 °F 71% 29.80 in 10.0 mi West 8.1 mph - N/A   Partly Cloudy
9:55 PM -5.8 °F -22.4 °F -16.6 °F 60% 29.80 in 10.0 mi West 9.2 mph - N/A   Clear
10:15 PM -5.8 °F -21.2 °F -20.2 °F 50% 29.81 in 10.0 mi West 8.1 mph - N/A   Partly Cloudy
10:35 PM -5.8 °F -22.4 °F -18.4 °F 55% 29.82 in 10.0 mi West 9.2 mph - N/A   Clear
10:55 PM -5.8 °F -25.2 °F -14.8 °F 65% 29.82 in 10.0 mi West 12.7 mph 18.4 mph N/A   Clear
11:15 PM -4.0 °F -21.2 °F -18.4 °F 50% 29.82 in 10.0 mi West 10.4 mph 18.4 mph N/A   Clear
11:35 PM -4.0 °F -21.2 °F -20.2 °F 46% 29.82 in 10.0 mi West 10.4 mph - N/A   Partly Cloudy
11:55 PM -4.0 °F -22.1 °F -16.6 °F 55% 29.82 in 10.0 mi West 11.5 mph 16.1 mph N/A   Partly Cloudy